カタログに戻る

CZ-6 R/B

運用中LEO
NORAD 49023·ROCKET BODY·🇨🇳 China

打ち上げ Jul 9, 2021 から Taiyuan Satellite Launch Center

Loading…

次のパス (今後24時間)

TLE

最新Source: Space-Track

元期: Sep 14, 2026, 11:37 UTC

1 49023U 21064F   26257.48455627  .00000077  00000-0  63262-4 0  9991
2 49023  44.9982  90.1762 0171584 174.4831 185.7958 14.40296832272750

AllMySatでCZ-6 R/Bをリアルタイム追跡

Download on the App Store